Home > Weather > Turaif > Past weeks

Flag for Saudi Arabia Weather for the Past 2 Weeks in Turaif, Saudi Arabia

Now
55 °F

Passing clouds.


Feels Like: 55 °F
Forecast: 46 / 59 °F
Wind: 5 mph from Northwest

Location: Turaif

Current Time: Feb 6, 2016 at 1:50:09 AM

Latest Report: Feb 6, 2016 at 1:00 AM


Visibility: N/A

Pressure: 30.01 "Hg (27.19 "Hg at 827m altitude)

Humidity: 59%

Dew point: 41 °F

Location of TuraifLocation

Historic Weather in Turaif — Graph

°F

Turaif Temperature Yesterday

Maximum temperature yesterday: 70 °F (at 4:00 PM)
Minimum temperature yesterday: 39 °F (at 4:00 AM)
Average temperature yesterday: 54 °F

High & Low Weather Summary for the Past Weeks

 TemperatureHumidityPressure
High70 °F (Feb 5, 4:00 PM)100% (Jan 23, 4:00 AM)30.42 "Hg (Jan 23, 4:00 AM)
Low21 °F (Jan 28, 7:00 AM)25% (Feb 1, 5:00 PM)29.89 "Hg (Jan 23, 4:00 PM)
Average43 °F67%30.17 "Hg
* Reported Midnight between Jan 21 and Jan 22 — Midnight between Feb 5 and Feb 6, Turaif, Weather by CustomWeather, © 2016

Note: Actual official high and low records may vary slightly from our data, if they occured in-between our weather recording intervals... More about our weather records

Advertising

Turaif Weather History for the Previous 24 Hours

 ConditionsComfort  
Time TempWeatherWind HumidityBarometerVisibility
12:00 AM
Sat, Feb 6
54 °FPassing clouds.7 mph54%30.04 "HgN/A
11:00 PM
Fri, Feb 5
55 °FPassing clouds.7 mph51%30.04 "HgN/A
10:00 PM57 °FPassing clouds.7 mph48%30.04 "HgN/A
9:00 PM59 °FPassing clouds.7 mph45%30.04 "HgN/A
8:00 PM61 °FPassing clouds.7 mph42%30.04 "HgN/A
7:00 PM63 °FPartly sunny.7 mph34%30.01 "HgN/A
6:00 PM66 °FPartly sunny.12 mph30%30.01 "HgN/A
5:00 PM68 °FPartly sunny.16 mph28%30.01 "HgN/A
4:00 PM70 °FScattered clouds.18 mph27%30.01 "HgN/A
3:00 PM68 °FPassing clouds.16 mph28%30.04 "HgN/A
2:00 PM66 °FScattered clouds.23 mph32%30.07 "Hg5 mi
1:00 PM66 °FScattered clouds.18 mph32%30.09 "Hg5 mi
12:00 PM63 °FScattered clouds.21 mph37%30.12 "HgN/A
11:00 AM61 °FScattered clouds.18 mph39%30.15 "HgN/A
10:00 AM54 °FScattered clouds.16 mph51%30.18 "HgN/A
9:00 AM45 °FScattered clouds.21 mph71%30.18 "HgN/A
8:00 AM41 °FPassing clouds.14 mph81%30.18 "HgN/A
7:00 AM39 °FPassing clouds.13 mph81%30.18 "HgN/A
6:00 AM39 °FClear.13 mph81%30.15 "Hg10 mi
5:00 AM39 °FClear.13 mph75%30.18 "Hg10 mi
4:00 AM39 °FClear.15 mph75%30.21 "Hg10 mi
3:00 AM41 °FClear.15 mph66%30.24 "Hg10 mi
2:00 AM43 °FClear.13 mph61%30.24 "Hg10 mi
1:00 AM45 °FClear.13 mph57%30.24 "Hg10 mi
Weather by CustomWeather, © 2016

See weather overviewHow to use our weather pages